Date String (YYYY-MM-DD hh:mm:ss) UTC,Instrument flags,absolute air pressure of the measurement (hPa),sample flow rate (lpm),inlet stack bypass flow (lpm),air temperature of the measurement (°C),ambient temperature measured by the external sensor (°C),aerosol sample conditioner tube jacket temperature (°C),OPC LED temperature (°C),internal box temperature (°C),relative humidity of the measurement (%),span deviation,mass concentration of particles derived from Lorenz-Mie calculation of OPC scattering (μg/m³),mass concentration of particles derived from Lorenz-Mie calculation of OPC scattering (μg/m³),mass concentration of particles derived from Lorenz-Mie calculation of OPC scattering (μg/m³)
DateTimeUTC,F1_M11,P_M11,Q1_M11,Q2_M11,T1_M11,T2_M11,T3_M11,T4_M11,T5_M11,U1_M11,ZSPAN_M11,X0_M11,X2_M11,X1_M11
2024-01-09 14:00:00,SystemResetWarning,0820.1,5.00,000.00,018.9,018.8,000.0,027.2,020.7,6.4,0000.0,0005.15,0002.38,0001.97
2024-01-09 14:01:00,SystemResetWarning,0820.1,5.00,000.00,019.0,019.1,000.0,027.2,020.7,6.4,0000.0,0004.83,0002.39,0001.99
2024-01-09 14:02:00,SystemResetWarning,0820.1,4.99,000.00,019.0,019.0,000.0,027.2,020.5,6.4,0000.0,0004.73,0002.42,0001.99
2024-01-09 14:03:00,SystemResetWarning,0820.1,4.99,000.00,019.0,018.8,000.0,027.2,020.3,6.4,0000.0,0004.75,0002.43,0002.00
2024-01-09 14:04:00,SystemResetWarning,0820.1,4.99,000.00,019.0,018.7,000.0,027.2,020.2,6.4,0000.0,0004.73,0002.42,0001.99
2024-01-09 14:05:00,SystemResetWarning,0820.1,5.01,000.00,019.0,018.5,000.0,027.2,020.1,6.4,0000.0,0003.78,0002.44,0002.00
2024-01-09 14:06:00,SystemResetWarning,0820.1,5.01,000.00,018.9,018.4,000.0,027.2,020.0,6.4,0000.0,0003.56,0002.45,0002.01
2024-01-09 14:07:00,SystemResetWarning,0820.2,5.00,000.00,018.9,018.3,000.0,027.2,020.0,6.5,0000.0,0003.51,0002.45,0002.03
2024-01-09 14:08:00,SystemResetWarning,0819.9,5.00,000.00,018.9,018.2,000.0,027.2,020.0,6.5,0000.0,0003.49,0002.42,0002.03
2024-01-09 14:09:00,SystemResetWarning,0819.9,5.00,000.00,018.8,018.1,000.0,027.2,020.0,6.5,0000.0,0003.78,0002.43,0002.05
2024-01-09 14:10:00,SystemResetWarning,0819.9,5.00,000.00,018.8,018.1,000.0,027.2,020.0,6.5,0000.0,0004.58,0002.47,0002.06
2024-01-09 14:11:00,SystemResetWarning,0820.1,5.00,000.00,018.8,018.0,000.0,027.2,020.0,6.5,0000.0,0004.68,0002.49,0002.08
2024-01-09 14:12:00,SystemResetWarning,0819.9,4.99,000.00,018.8,017.9,000.0,027.2,020.0,6.4,0000.0,0004.66,0002.53,0002.10
2024-01-09 14:13:00,SystemResetWarning,0820.0,4.99,000.00,018.8,017.9,000.0,027.2,020.0,6.4,0000.0,0004.93,0002.54,0002.13
2024-01-09 14:14:00,SystemResetWarning,0820.0,4.99,000.00,018.8,017.8,000.0,027.2,020.0,6.4,0000.0,0005.18,0002.55,0002.15
2024-01-09 14:15:00,SystemResetWarning,0820.0,5.00,000.00,018.8,017.8,000.0,027.2,020.0,6.4,0000.0,0005.46,0002.58,0002.19
2024-01-09 14:16:00,SystemResetWarning,0819.9,5.00,000.00,018.8,017.7,000.0,027.2,020.0,6.4,0000.0,0006.32,0002.59,0002.21
2024-01-09 14:17:00,SystemResetWarning,0819.8,5.01,000.00,018.8,018.0,000.0,027.2,020.3,6.4,0000.0,0006.32,0002.59,0002.21
2024-01-09 14:18:00,SystemResetWarning,0819.8,5.00,000.00,018.9,018.7,000.0,027.2,020.7,6.4,0000.0,0006.41,0002.63,0002.22
2024-01-09 14:19:00,SystemResetWarning,0819.8,4.99,000.00,019.0,019.1,000.0,027.3,020.7,6.4,0000.0,0006.59,0002.71,0002.25
2024-01-09 14:20:00,SystemResetWarning,0820.0,4.99,000.00,019.1,019.0,000.0,027.3,020.4,6.4,0000.0,0006.47,0002.72,0002.26
2024-01-09 14:21:00,SystemResetWarning,0820.0,5.00,000.00,019.0,018.8,000.0,027.3,020.2,6.4,0000.0,0005.55,0002.74,0002.26
2024-01-09 14:22:00,SystemResetWarning,0820.1,5.00,000.00,019.0,018.7,000.0,027.3,020.2,6.4,0000.0,0005.48,0002.71,0002.25
2024-01-09 14:23:00,SystemResetWarning,0819.6,5.01,000.00,019.0,018.6,000.0,027.2,020.1,6.4,0000.0,0005.55,0002.70,0002.25
2024-01-09 14:24:00,SystemResetWarning,0819.7,5.00,000.00,018.9,018.4,000.0,027.2,020.0,6.4,0000.0,0005.34,0002.71,0002.25
2024-01-09 14:25:00,SystemResetWarning,0819.9,5.00,000.00,018.9,018.3,000.0,027.2,020.0,6.4,0000.0,0005.12,0002.70,0002.25
2024-01-09 14:26:00,SystemResetWarning,0820.2,5.00,000.00,018.9,018.2,000.0,027.2,020.0,6.4,0000.0,0004.99,0002.69,0002.24
2024-01-09 14:27:00,SystemResetWarning,0820.2,5.00,000.00,018.8,018.1,000.0,027.2,020.0,6.4,0000.0,0004.34,0002.73,0002.23
2024-01-09 14:28:00,SystemResetWarning,0819.9,5.00,000.00,018.8,018.1,000.0,027.2,020.0,6.4,0000.0,0004.55,0002.77,0002.24
2024-01-09 14:29:00,SystemResetWarning,0819.8,5.00,000.00,018.8,018.1,000.0,027.2,020.0,6.4,0000.0,0004.45,0002.73,0002.22
2024-01-09 14:30:00,SystemResetWarning,0819.9,5.00,000.00,018.8,018.0,000.0,027.2,020.0,6.4,0000.0,0004.34,0002.68,0002.20
2024-01-09 14:31:00,SystemResetWarning,0820.0,5.00,000.00,018.8,018.0,000.0,027.2,020.0,6.4,0000.0,0004.42,0002.71,0002.18
2024-01-09 14:32:00,SystemResetWarning,0820.0,5.01,000.00,018.7,018.0,000.0,027.2,020.0,6.4,0000.0,0004.42,0002.70,0002.18
2024-01-09 14:33:00,SystemResetWarning,0819.7,5.00,000.00,018.7,018.0,000.0,027.2,020.0,6.4,0000.0,0004.32,0002.70,0002.18
2024-01-09 14:34:00,SystemResetWarning,0819.7,5.01,000.00,018.7,017.9,000.0,027.2,020.0,6.4,0000.0,0004.26,0002.72,0002.17
2024-01-09 14:35:00,SystemResetWarning,0820.0,5.00,000.00,018.7,017.9,000.0,027.2,020.1,6.4,0000.0,0004.17,0002.69,0002.14
2024-01-09 14:36:00,SystemResetWarning,0819.8,5.00,000.00,018.8,018.3,000.0,027.2,020.4,6.4,0000.0,0004.16,0002.68,0002.13
2024-01-09 14:37:00,SystemResetWarning,0820.1,4.99,000.00,019.0,019.1,000.0,027.2,020.8,6.4,0000.0,0004.01,0002.64,0002.11
2024-01-09 14:38:00,SystemResetWarning,0819.8,5.00,000.00,019.1,019.3,000.0,027.2,020.7,6.4,0000.0,0003.75,0002.60,0002.10
2024-01-09 14:39:00,SystemResetWarning,0819.7,4.99,000.00,019.1,019.1,000.0,027.3,020.5,6.4,0000.0,0003.55,0002.56,0002.07
2024-01-09 14:40:00,SystemResetWarning,0819.9,5.00,000.00,019.0,018.9,000.0,027.3,020.3,6.4,0000.0,0003.70,0002.59,0002.08
2024-01-09 14:41:00,SystemResetWarning,0819.9,5.00,000.00,019.0,018.8,000.0,027.3,020.3,6.4,0000.0,0003.99,0002.64,0002.08
2024-01-09 14:42:00,SystemResetWarning,0820.1,5.01,000.00,019.0,018.6,000.0,027.3,020.2,6.5,0000.0,0003.99,0002.64,0002.09
2024-01-09 14:43:00,SystemResetWarning,0820.1,5.00,000.00,018.9,018.5,000.0,027.2,020.1,6.5,0000.0,0004.12,0002.66,0002.11
2024-01-09 14:44:00,SystemResetWarning,0819.8,5.00,000.00,018.9,018.4,000.0,027.2,020.0,6.5,0000.0,0004.21,0002.72,0002.13
2024-01-09 14:45:00,SystemResetWarning,0820.0,5.00,000.00,018.9,018.3,000.0,027.2,020.0,6.5,0000.0,0004.25,0002.74,0002.16
2024-01-09 14:46:00,SystemResetWarning,0819.8,5.00,000.00,018.9,018.3,000.0,027.2,020.0,6.5,0000.0,0004.32,0002.77,0002.18
2024-01-09 14:47:00,SystemResetWarning,0819.8,5.00,000.00,018.8,018.2,000.0,027.2,020.0,6.5,0000.0,0004.41,0002.79,0002.20
2024-01-09 14:48:00,SystemResetWarning,0819.9,5.00,000.00,018.8,018.2,000.0,027.2,020.0,6.6,0000.0,0004.53,0002.84,0002.24
2024-01-09 14:49:00,SystemResetWarning,0819.8,4.99,000.00,018.8,018.1,000.0,027.2,020.0,6.6,0000.0,0004.55,0002.85,0002.24
2024-01-09 14:50:00,SystemResetWarning,0820.0,5.00,000.00,018.8,018.1,000.0,027.2,020.0,6.5,0000.0,0004.54,0002.86,0002.26
2024-01-09 14:51:00,SystemResetWarning,0819.8,4.99,000.00,018.8,018.1,000.0,027.2,020.0,6.6,0000.0,0004.51,0002.85,0002.26
2024-01-09 14:52:00,SystemResetWarning,0819.9,5.00,000.00,018.8,018.0,000.0,027.2,020.0,6.6,0000.0,0004.20,0002.82,0002.26
2024-01-09 14:53:00,SystemResetWarning,0819.8,5.01,000.00,018.8,018.0,000.0,027.2,020.0,6.6,0000.0,0004.13,0002.79,0002.26
2024-01-09 14:54:00,SystemResetWarning,0819.8,5.01,000.00,018.7,018.0,000.0,027.2,020.0,6.7,0000.0,0004.23,0002.76,0002.24
2024-01-09 14:55:00,SystemResetWarning,0820.0,5.00,000.00,018.7,018.0,000.0,027.2,020.0,6.7,0000.0,0004.42,0002.70,0002.22
2024-01-09 14:56:00,SystemResetWarning,0819.9,5.00,000.00,018.7,018.0,000.0,027.2,020.0,6.7,0000.0,0005.94,0002.71,0002.20
2024-01-09 14:57:00,SystemResetWarning,0820.1,4.99,000.00,018.7,017.9,000.0,027.2,020.0,6.7,0000.0,0006.00,0002.69,0002.19
2024-01-09 14:58:00,SystemResetWarning,0820.0,4.99,000.00,018.7,017.9,000.0,027.2,020.1,6.7,0000.0,0005.92,0002.68,0002.17
2024-01-09 14:59:00,SystemResetWarning,0820.2,5.01,000.00,018.8,018.5,000.0,027.2,020.5,6.7,0000.0,0005.82,0002.65,0002.15
